User: anonymous   Login
Location: Unspecified
(0.0000°N, 0.0000°E)
Time: 19:35:16
(UTC+02:00)
Language:

Cosmos 2082 Rocket - Orbit

View from above orbital plane
View from above orbital plane
View from above satellite
View from above satellite

Ground track
Ground track

The orbit data is extracted from the following two-line orbital elements,

1 20625U 90046B   18112.85278626 -.00000224 +00000-0 -91425-4 0  9996
2 20625 070.9992 219.2053 0014518 347.9203 012.1568 14.14625738441375
Epoch (UTC): 22 April 2018 20:28:00
Eccentricity: 0.0014518
inclination: 70.9992°
perigee height: 833 km
apogee height: 854 km
right ascension of ascending node: 219.2053°
argument of perigee: 347.9203°
revolutions per day: 14.14625738
mean anomaly at epoch: 12.1568°
orbit number at epoch: 44137

The dashed part of the orbit path shows where the satellite is in the earth's shadow,  

DLR